Theta_e
347 348 351 355 355 355 355 355 355 355 355 355 355 354 354 354 355 354 354 353 353 353 351 351 352 351 350 349 347 346 345 344 343 343 345 347 348 347 347 347 350 350 349 348 347 348 348 348 348 348 349 349 349 349 348 348 348 349 349 349 349 349 349 349 349 349 348 349 348 348 349 349 349 348 347 345 344 344 344 343 342 340 339 340 341
345 350 351 352 355 355 355 355 355 355 355 355 354 354 354 355 355 354 354 353 354 354 352 351 351 350 349 348 347 345 345 344 344 344 345 345 346 345 346 346 348 349 349 348 347 347 348 348 348 349 348 349 348 348 348 348 349 349 348 348 348 348 349 349 348 349 348 349 349 349 348 348 348 348 348 347 345 345 345 344 343 339 337 341 341
349 349 351 352 355 355 355 355 354 354 354 354 354 353 354 355 354 354 354 354 354 353 351 351 351 350 349 348 346 345 345 344 344 343 344 344 344 344 345 347 348 347 347 347 347 347 348 348 348 349 349 349 349 349 348 348 347 348 350 349 349 349 349 349 349 348 348 347 348 349 348 348 348 348 348 347 345 343 345 345 344 343 339 342 341
347 348 350 352 354 355 355 354 354 354 354 354 353 354 354 354 354 354 354 354 354 353 351 351 351 351 350 349 348 346 344 344 343 343 343 344 345 344 344 347 348 349 349 348 348 348 348 348 348 349 349 349 348 348 348 349 350 350 351 351 351 351 351 352 350 349 349 348 347 346 346 339 344 347 347 347 345 344 344 344 344 343 342 341 342
347 349 349 350 351 354 354 354 354 354 354 353 353 354 354 354 354 354 354 354 354 353 352 351 351 351 351 349 347 345 344 344 343 344 343 343 346 344 344 347 349 348 347 347 348 348 348 348 348 349 348 348 347 348 349 350 350 350 351 352 352 352 352 351 350 351 350 348 348 348 338 339 340 348 348 347 346 345 345 345 344 343 342 342 342
347 349 349 349 350 352 354 353 354 354 354 353 353 354 353 354 353 353 354 353 353 353 352 351 351 351 352 349 347 346 345 344 344 343 344 344 346 344 343 344 345 347 347 347 348 347 348 349 349 348 348 348 348 348 349 350 351 351 351 351 351 352 351 351 351 351 350 351 350 343 340 338 341 345 347 347 347 347 346 345 344 343 342 342 342
348 348 348 349 349 351 354 354 353 353 353 353 353 353 353 354 354 354 354 353 353 353 352 351 352 352 351 350 348 346 346 344 344 343 343 345 343 345 344 344 345 346 347 347 347 347 348 348 349 348 348 347 347 348 348 350 350 350 350 350 350 351 350 350 351 352 351 349 341 340 337 339 340 343 347 348 348 346 346 345 344 344 343 342 342
347 348 348 349 349 353 354 353 353 353 353 353 354 353 354 354 353 353 353 353 353 352 352 352 352 352 351 351 349 348 345 344 344 344 343 343 348 347 344 344 345 346 347 347 347 348 348 349 348 347 347 346 347 347 348 349 349 349 350 351 350 351 351 351 352 350 347 341 342 340 333 338 340 342 347 348 347 346 345 346 345 344 343 343 342
345 346 348 348 349 353 353 353 353 353 353 353 353 354 354 354 354 353 353 353 353 352 352 352 352 352 351 351 349 348 347 345 344 343 342 344 348 349 349 348 348 348 347 347 347 347 347 348 347 346 345 345 346 347 347 348 349 350 349 350 351 351 351 350 353 348 342 337 337 333 335 339 340 341 347 348 347 346 344 344 344 344 343 343 342
345 346 347 347 349 353 353 353 353 353 353 353 353 353 353 353 353 353 353 353 353 353 353 352 352 352 351 350 349 349 349 349 347 344 343 344 346 349 348 347 347 346 346 346 346 346 346 347 346 345 345 345 346 346 347 347 348 349 349 350 351 351 350 351 352 346 338 333 332 334 337 345 341 342 346 348 347 347 346 346 346 344 344 343 343
344 345 346 348 350 353 352 353 353 353 353 353 353 353 353 353 353 353 353 353 353 352 352 352 352 352 351 348 347 347 348 348 348 347 345 345 345 346 346 346 346 347 347 346 346 347 347 347 345 344 345 345 346 346 347 348 348 349 350 351 351 351 350 351 349 338 340 332 332 334 346 347 339 339 348 348 348 347 346 345 345 344 344 343 343
343 345 346 348 353 352 352 353 353 353 353 353 353 353 353 353 353 353 353 353 353 352 352 352 352 351 350 349 348 347 347 347 347 347 347 346 345 346 345 346 347 347 347 346 346 347 347 345 345 345 345 346 346 347 347 348 348 350 350 351 350 350 352 351 341 334 338 337 340 340 343 342 341 345 349 349 348 347 346 345 345 344 343 343 343
343 344 346 348 349 352 352 352 353 353 353 353 353 353 353 353 353 353 353 352 352 352 352 351 351 351 350 350 349 348 346 347 347 346 346 346 346 346 347 347 347 347 347 346 346 347 346 345 345 346 346 346 347 347 347 348 348 349 350 351 350 349 351 349 340 334 333 334 336 337 339 339 341 349 349 349 348 347 346 345 344 344 343 343 344
342 344 346 347 348 353 352 352 353 353 353 353 353 353 352 353 353 352 352 352 351 351 351 351 351 351 350 349 348 347 346 345 345 345 345 345 345 346 347 347 347 347 347 346 346 346 346 346 346 347 347 347 346 347 347 348 349 349 350 349 350 350 350 347 346 337 336 335 337 337 340 342 341 349 349 349 348 347 346 345 345 345 345 345 344
342 344 345 346 348 349 353 352 353 353 352 353 353 353 353 353 353 352 352 352 351 351 351 350 350 350 348 348 347 346 345 344 344 344 344 343 345 347 347 347 346 346 346 346 346 346 346 346 347 347 347 346 346 346 348 348 349 349 349 348 349 349 350 347 343 337 336 337 336 337 338 340 349 350 349 349 348 347 346 346 345 346 345 345 344
344 344 345 345 346 347 348 352 353 353 353 353 353 353 353 353 352 352 352 351 351 351 350 349 349 348 348 347 346 345 344 344 342 343 342 342 345 347 347 347 346 346 345 346 346 346 346 346 347 346 346 345 346 347 347 348 348 348 348 348 348 348 351 351 341 336 334 335 337 340 339 343 349 350 348 348 348 347 347 346 346 346 345 345 344
344 344 344 344 345 345 347 350 352 353 353 353 353 353 352 352 352 352 351 351 350 350 349 348 348 348 347 346 345 345 344 343 342 342 342 341 342 344 345 345 344 345 345 345 346 345 346 346 346 346 346 346 347 346 347 347 347 347 348 347 347 348 352 349 339 337 339 342 342 341 339 342 347 347 347 348 348 347 347 346 345 346 345 345 344
343 343 343 344 344 346 348 349 350 350 350 352 352 352 352 351 351 350 350 350 349 348 347 347 347 347 346 346 345 344 343 343 342 341 341 341 341 342 344 343 343 343 344 345 344 345 345 346 345 345 345 346 346 346 346 346 346 347 348 347 347 349 347 345 337 339 343 345 342 344 342 348 349 346 346 346 347 347 346 345 345 345 345 345 345
341 342 343 343 344 345 348 349 349 348 349 348 349 350 351 351 350 350 349 349 348 347 346 345 345 345 346 345 344 343 342 341 342 342 341 341 341 342 341 341 343 343 344 344 344 345 345 344 345 344 344 345 345 345 346 346 346 346 347 347 347 348 345 342 340 343 345 343 343 342 341 349 350 348 347 346 346 346 346 346 345 345 345 345 345
339 341 341 342 344 345 348 349 348 348 347 346 347 348 350 350 349 349 348 347 346 345 345 345 345 345 345 344 344 342 341 339 342 341 341 341 341 342 342 342 342 343 344 344 344 345 344 344 344 343 343 344 345 345 346 347 347 347 346 346 347 347 337 338 342 343 344 346 347 343 350 350 350 349 348 347 346 346 345 345 345 345 345 345 345
338 339 339 341 343 345 347 348 348 348 347 347 346 347 348 350 349 348 347 347 346 346 344 344 343 343 342 343 342 338 334 335 337 336 342 340 341 341 342 343 343 343 344 344 344 344 344 344 344 344 345 346 346 346 346 345 345 345 348 346 347 336 338 340 342 344 344 344 345 346 349 349 350 348 347 347 347 346 345 345 345 345 345 344 344
334 336 338 340 342 345 346 347 347 347 347 347 347 347 347 348 344 344 344 344 345 344 341 337 343 334 342 340 334 338 332 330 332 342 337 340 340 342 343 343 343 343 343 344 343 344 343 343 344 345 345 347 347 341 341 344 343 342 347 347 338 337 339 340 341 342 343 344 345 347 349 349 348 348 349 347 346 345 346 346 345 345 344 344 342
332 334 336 339 342 344 346 346 346 347 347 347 347 347 346 344 343 341 343 345 344 343 337 340 335 336 337 337 338 335 332 331 334 340 339 343 340 342 343 343 344 343 343 343 343 343 344 344 345 346 346 347 343 337 336 335 334 341 344 341 335 338 339 339 339 340 341 343 343 348 348 348 348 348 348 347 346 345 345 344 344 345 344 343 342
331 333 335 339 342 343 344 346 346 346 346 346 346 345 343 342 341 341 340 339 337 340 336 337 338 337 338 336 336 337 336 333 343 344 344 340 339 342 344 344 343 343 343 343 344 344 345 345 346 346 346 343 337 335 336 335 332 331 336 336 338 339 338 337 337 337 338 343 343 347 347 347 347 346 346 347 346 346 345 343 344 344 342 341 340
332 334 336 337 341 342 344 345 345 345 346 346 345 344 342 341 340 340 338 336 335 336 336 336 337 337 338 338 337 339 336 333 336 337 337 336 332 333 335 333 334 332 344 333 332 336 336 334 334 338 334 336 336 335 333 333 334 336 338 336 339 338 338 337 337 336 336 338 341 345 345 345 345 345 346 345 345 344 343 343 342 342 341 340 339
334 333 334 336 340 342 344 345 345 345 345 345 344 344 342 340 339 339 337 335 335 335 335 335 335 336 337 339 340 339 336 334 335 335 335 334 333 332 333 332 330 331 337 334 332 332 333 334 334 334 334 333 334 335 336 340 335 335 336 336 338 337 336 335 335 335 335 336 340 343 343 343 344 344 345 344 343 343 343 342 343 342 341 339 339
334 333 335 336 339 341 344 345 344 344 344 345 344 343 340 340 340 339 337 335 334 334 334 335 335 335 337 340 340 338 337 336 334 334 334 333 332 332 333 333 332 332 337 333 332 335 335 337 335 336 335 336 337 336 337 337 335 336 335 336 338 337 335 334 334 333 333 335 339 341 341 341 341 342 343 344 343 343 343 342 341 341 340 338 338
334 333 334 336 338 339 344 345 344 344 344 345 342 341 340 340 339 342 339 337 336 334 333 335 336 336 338 341 343 339 338 336 336 337 337 336 335 336 337 336 335 335 337 337 336 336 337 338 336 337 337 336 336 336 337 339 335 335 336 335 337 336 334 333 333 332 331 332 335 338 338 338 338 339 339 340 341 341 342 342 341 340 338 337 335
333 333 334 334 335 340 343 344 344 344 344 344 342 341 341 340 340 339 337 340 335 333 334 336 336 338 340 343 343 339 337 337 336 336 338 336 335 336 335 334 333 334 335 336 336 334 334 337 338 337 335 335 334 335 337 337 334 333 334 335 336 335 334 332 331 330 329 329 330 333 336 335 335 335 336 336 337 337 338 339 339 337 335 334 331
334 334 333 334 335 341 343 344 344 344 344 344 341 341 341 340 340 339 337 339 335 333 334 335 337 340 341 341 341 339 338 337 336 335 336 335 335 336 336 335 335 334 334 334 335 335 335 335 337 336 335 333 333 335 336 335 335 335 334 334 335 335 333 331 330 328 327 326 327 329 332 331 331 331 332 333 333 333 334 334 335 336 331 330 329
335 333 333 333 337 341 343 344 344 345 344 343 341 340 341 340 340 339 337 336 335 335 335 336 337 340 341 340 339 340 337 336 336 335 334 334 334 333 332 334 333 332 334 334 335 336 335 334 334 333 333 332 333 333 331 331 332 332 333 334 335 335 333 331 329 328 325 323 323 323 325 327 326 326 326 326 326 327 327 330 331 332 329 328 327
334 333 333 334 338 341 342 344 344 345 343 343 342 340 340 340 340 339 337 337 336 334 335 337 340 340 340 339 338 338 338 336 336 335 335 334 333 332 332 333 332 334 334 334 335 336 336 336 336 336 333 333 331 332 332 327 323 324 326 330 334 333 332 330 328 325 323 322 320 320 320 321 323 323 323 323 323 323 323 324 326 327 328 328 327
334 334 333 334 338 341 342 343 344 344 343 342 341 341 341 340 339 338 338 338 336 335 335 336 338 340 340 339 339 338 338 336 335 336 338 334 333 331 331 331 331 331 334 335 336 335 335 332 330 332 331 331 331 329 328 323 322 321 322 324 330 332 332 329 325 323 322 321 320 319 319 321 319 322 322 321 321 321 321 321 322 324 326 326 326
333 333 332 333 339 341 343 343 342 342 342 343 341 340 340 339 339 337 337 337 335 335 336 336 340 340 340 339 339 339 338 336 335 335 334 333 332 331 331 331 330 332 334 336 333 332 332 331 331 329 335 331 329 328 321 319 318 319 319 320 322 325 327 326 324 322 321 320 319 318 316 315 316 317 320 320 320 320 320 320 320 321 323 324 324
334 332 331 333 338 339 342 341 342 341 343 342 341 339 339 339 338 335 336 335 335 334 336 338 340 340 341 339 340 340 339 337 336 336 334 333 332 332 334 333 332 334 332 332 332 331 330 329 329 328 328 330 329 326 319 317 316 316 316 317 317 318 320 321 322 322 321 320 319 317 315 313 313 315 317 314 323 320 320 320 319 320 320 320 320
332 332 332 333 335 337 340 340 341 340 342 341 340 339 339 338 337 339 335 335 334 335 336 338 339 340 341 340 340 341 339 338 337 336 334 333 332 332 333 332 332 332 330 331 332 330 328 329 328 327 327 327 324 321 319 316 316 315 315 315 315 316 313 314 314 314 313 313 313 313 313 313 312 314 318 312 314 319 320 320 320 319 318 318 317
333 332 332 332 332 336 340 339 339 339 340 340 339 338 338 337 337 337 335 335 334 335 336 338 339 339 339 340 341 343 339 338 337 336 334 333 332 333 332 333 333 332 330 329 330 329 329 331 327 328 327 324 321 318 316 315 314 313 313 313 313 314 311 311 310 310 311 308 309 310 312 312 316 323 309 311 311 312 318 319 318 318 317 317 317
332 332 333 332 331 336 338 338 339 339 340 339 338 338 337 337 337 336 337 335 334 335 336 339 338 338 339 340 341 341 339 338 337 336 335 334 334 334 334 333 333 331 329 329 328 328 328 329 326 325 326 324 319 316 315 314 314 313 312 312 312 311 311 312 314 316 307 307 307 307 308 308 306 305 306 308 310 311 312 317 320 320 317 316 316
333 332 333 332 332 336 337 338 339 338 339 338 338 338 337 336 336 335 335 334 335 334 338 338 338 339 339 340 340 339 339 336 337 337 335 336 334 333 334 332 333 331 327 328 328 327 326 325 326 326 326 323 318 316 315 315 314 313 312 311 311 310 312 313 310 309 310 308 309 309 308 306 305 304 304 305 306 307 306 304 303 303 306 317 316
332 332 332 331 332 336 337 337 338 339 339 338 338 337 335 334 333 333 333 334 334 336 338 338 338 338 340 340 338 338 337 336 335 335 335 334 333 333 333 332 330 328 325 325 324 324 325 325 323 325 322 322 320 317 316 315 313 312 313 311 312 312 311 309 308 308 309 307 307 307 305 304 304 304 304 304 304 303 303 304 309 304 306 313 314
332 332 331 330 333 335 336 335 337 339 338 337 336 335 333 332 333 333 332 332 334 336 337 337 337 338 339 338 337 336 335 334 335 334 333 336 332 330 329 329 328 327 325 324 324 324 324 323 323 324 321 318 316 316 315 314 311 309 310 309 308 310 314 308 307 306 305 305 305 306 308 304 303 304 304 304 303 302 301 302 302 303 303 303 305
330 332 331 330 334 335 336 336 337 338 338 337 336 336 334 334 333 332 331 331 334 335 334 336 336 338 338 337 336 335 334 333 334 332 333 332 330 328 326 326 326 326 326 325 324 330 323 324 321 318 320 317 315 317 317 314 311 307 306 305 306 305 310 305 306 305 305 305 305 305 305 303 303 304 304 303 303 303 303 303 303 303 303 303 303
331 331 331 331 334 335 336 337 337 337 337 338 337 335 333 334 333 332 333 331 333 336 336 336 337 337 336 336 336 334 333 333 332 333 332 331 329 326 326 325 325 328 323 323 323 322 321 321 319 319 318 318 318 319 317 315 311 309 309 306 302 302 305 303 305 305 305 305 305 305 306 302 302 303 304 301 300 301 304 303 303 302 303 304 303
331 330 330 331 334 335 336 337 336 337 337 338 337 336 336 334 334 334 334 334 333 336 336 335 335 334 334 336 335 333 333 332 332 332 331 328 326 325 325 324 324 323 321 321 320 321 319 320 321 320 321 317 315 317 320 317 313 310 305 304 302 301 299 301 300 303 304 304 304 304 306 304 304 305 300 302 302 302 302 304 303 303 303 302 303
331 330 330 331 334 335 336 337 337 337 337 338 337 336 336 334 334 333 333 333 333 333 332 331 332 333 333 332 333 332 332 332 332 330 329 326 325 324 323 323 322 321 321 320 320 321 319 320 322 319 319 318 315 311 312 316 314 314 311 307 304 303 302 301 300 299 302 301 302 304 310 306 303 307 299 299 300 301 302 302 302 304 304 303 302
332 331 331 331 333 335 336 337 337 337 337 337 337 336 335 333 331 330 330 330 329 330 329 329 328 330 330 329 330 331 330 330 328 327 326 325 323 323 322 321 321 321 322 319 318 316 316 316 316 317 315 317 317 310 309 314 316 317 314 313 310 305 304 301 297 293 303 305 303 304 303 302 303 304 302 300 300 301 307 302 301 303 305 304 303
333 333 332 331 333 335 336 337 337 337 338 337 337 337 334 333 332 332 332 331 329 329 329 330 330 328 328 327 328 327 328 327 326 325 324 324 322 322 321 320 320 321 323 317 315 315 315 315 316 315 315 316 314 311 310 309 307 309 312 311 315 311 305 300 296 296 295 298 300 300 299 301 303 303 305 301 302 301 301 305 304 302 301 302 303
334 333 332 331 332 333 336 336 337 337 338 338 337 337 335 333 332 331 331 331 330 329 329 329 328 328 326 326 326 325 326 326 324 324 324 324 322 321 321 319 319 319 320 315 314 314 315 315 314 313 314 313 312 313 309 307 308 306 313 308 312 307 304 304 303 299 296 295 296 299 300 300 300 300 305 304 302 302 300 302 303 302 300 300 301
334 333 332 332 333 334 335 336 336 337 337 337 337 336 335 333 332 331 330 330 330 329 329 328 327 327 325 324 324 324 324 323 323 323 322 322 324 320 320 318 317 316 317 314 313 313 312 311 310 310 311 310 309 308 308 306 305 305 304 304 304 303 302 303 305 303 298 295 295 295 296 299 300 299 301 301 301 301 304 302 304 309 308 305 301
334 334 333 333 334 334 334 335 335 336 337 337 337 336 335 334 331 331 330 329 329 329 328 327 326 325 324 322 322 323 322 321 321 322 321 321 318 317 317 317 316 316 316 312 312 312 311 310 309 309 309 309 307 308 307 304 305 303 304 305 303 301 300 301 300 300 299 297 296 296 296 295 295 297 300 300 300 300 300 301 301 301 301 302 302
334 334 333 333 334 334 334 334 335 336 336 336 336 335 334 333 332 331 330 329 328 328 326 325 325 323 322 322 322 323 321 320 319 319 318 316 314 316 314 314 315 318 314 311 311 311 310 310 310 309 308 307 306 306 306 304 304 303 302 302 301 301 299 298 298 299 298 296 296 297 297 298 297 297 299 301 303 302 301 301 301 301 301 302 301
Wind_Speed
9 12 9 13 15 16 17 17 18 18 18 16 16 15 16 16 15 15 15 15 15 15 14 14 14 14 14 14 14 14 13 13 12 12 11 12 11 13 12 12 14 13 13 12 13 13 12 12 12 12 12 12 12 12 11 11 11 11 12 12 12 12 12 12 12 12 11 12 12 12 13 13 14 14 14 13 13 12 13 13 12 7 5 9 12
15 10 9 11 16 16 17 18 18 18 18 17 16 16 16 15 15 15 15 15 15 14 14 13 13 13 13 14 14 14 13 12 13 13 12 11 11 11 12 13 13 13 14 14 14 13 12 12 11 11 11 11 11 11 11 11 11 11 12 12 12 12 11 11 11 10 11 12 12 12 13 13 13 14 14 13 12 14 13 13 14 5 4 12 13
12 11 8 11 17 16 17 17 18 17 17 17 16 16 15 15 15 15 15 15 15 14 13 13 13 13 13 14 14 13 13 13 13 13 13 12 11 11 11 13 12 12 13 14 13 13 12 12 11 11 10 10 10 10 10 10 10 11 11 11 11 11 11 11 11 10 10 12 11 11 12 12 12 12 13 13 12 14 14 14 14 12 8 13 11
13 9 8 14 17 16 17 17 17 16 16 16 16 16 15 14 14 15 15 15 14 14 13 13 12 12 12 13 13 13 13 13 13 13 12 12 12 12 11 12 13 15 15 13 12 12 12 11 11 11 10 10 10 10 9 9 9 9 10 10 10 11 10 10 9 8 6 5 8 7 2 2 6 11 13 14 13 13 13 14 14 14 15 14 13
13 10 9 10 11 14 16 17 17 16 16 16 17 16 15 14 14 14 15 15 14 13 13 12 11 12 12 13 13 13 12 13 12 14 13 9 9 12 10 13 15 14 14 13 13 12 11 11 10 10 10 10 10 9 9 9 8 8 9 9 9 9 9 7 6 5 3 3 3 4 2 2 3 10 13 14 13 13 13 13 13 13 14 14 14
13 11 10 9 9 11 16 16 18 17 16 16 17 16 15 14 14 14 14 14 14 14 13 11 12 11 11 11 12 12 12 11 11 10 9 10 6 9 11 13 12 13 13 13 12 11 10 10 10 10 9 9 9 9 10 10 10 10 10 9 9 8 7 5 2 1 2 2 2 1 0 1 1 5 13 13 13 13 13 14 13 12 13 14 14
15 11 11 9 8 10 16 16 18 17 16 17 17 16 15 15 14 14 13 14 14 14 13 12 11 11 11 11 11 12 11 12 10 9 7 7 10 8 11 12 12 12 12 12 11 10 10 9 9 9 9 9 10 10 9 10 10 11 10 10 9 8 6 4 2 2 1 1 1 1 2 1 1 3 11 12 12 12 13 13 13 13 12 13 14
9 8 9 9 8 12 15 16 17 16 17 17 16 16 15 14 14 13 13 13 13 13 13 12 11 11 10 11 11 12 11 11 10 8 6 6 6 9 10 11 12 12 11 11 10 9 9 9 9 9 9 9 9 9 10 10 10 11 11 10 10 9 8 7 8 8 6 4 4 3 2 1 1 3 11 11 11 12 12 12 12 12 12 13 12
10 9 8 9 8 16 14 14 15 16 16 16 16 16 15 14 14 13 13 12 13 13 12 12 11 11 11 11 12 11 11 10 9 8 7 7 6 8 8 10 11 11 10 9 9 9 8 8 8 8 8 8 8 8 9 10 10 10 11 11 11 11 11 10 8 7 4 5 4 4 2 2 3 4 9 11 11 11 12 10 10 12 13 12 12
9 8 7 7 8 16 14 14 14 16 16 16 16 16 16 15 13 13 13 13 12 12 12 12 12 11 11 11 11 10 10 10 9 7 7 7 8 8 11 11 12 11 9 9 8 7 7 7 7 7 8 7 7 7 8 9 9 9 9 9 10 10 11 9 8 4 3 6 5 4 2 4 3 4 8 11 11 11 11 11 8 9 9 12 12
10 8 7 7 10 14 14 14 14 15 16 16 16 16 15 15 14 13 13 13 12 12 12 12 12 12 11 11 10 10 9 9 10 8 8 8 7 9 10 9 9 9 8 7 7 6 6 6 7 7 7 6 6 7 8 9 9 9 9 10 11 11 12 13 9 2 3 7 4 3 3 7 3 3 9 11 11 10 11 10 10 10 10 11 10
10 8 6 7 14 14 13 13 14 15 15 16 16 16 15 14 14 13 13 12 12 12 11 12 12 12 12 11 10 10 9 9 9 9 9 9 8 8 8 8 8 8 7 6 5 6 6 6 6 6 6 6 6 7 7 8 9 9 9 10 10 10 10 12 7 5 4 7 5 3 2 2 3 5 10 10 10 10 9 9 9 9 9 9 9
10 8 7 7 9 13 13 13 14 14 15 16 15 16 15 15 14 13 13 12 12 11 11 11 11 11 12 11 11 10 9 8 9 9 9 9 9 8 8 7 7 6 6 5 5 5 5 4 5 5 6 6 7 7 8 8 9 9 11 12 11 11 12 12 7 6 6 6 4 3 1 1 2 7 8 9 9 8 8 8 8 8 8 9 9
11 9 7 7 7 14 13 12 13 15 15 15 15 15 15 14 14 13 12 11 11 12 11 11 11 12 12 11 11 10 10 8 8 9 9 9 9 8 7 7 6 6 6 5 4 4 3 4 4 5 5 6 6 7 8 9 10 11 12 12 10 11 13 8 7 4 6 5 3 2 1 1 1 6 7 7 8 8 8 8 9 9 8 9 9
13 11 8 7 7 8 16 12 12 12 13 13 13 13 13 13 12 12 11 11 11 11 12 12 12 12 11 11 10 10 9 9 8 8 9 9 9 8 8 7 6 6 5 4 3 2 3 3 3 4 5 6 7 7 9 10 11 12 13 12 11 11 14 6 5 4 6 5 3 2 1 1 4 4 6 6 7 7 7 8 8 9 9 8 9
13 12 10 7 6 8 8 13 12 12 12 12 12 13 13 13 13 12 12 11 11 12 12 11 11 9 9 9 10 9 10 10 9 9 8 9 10 10 9 9 8 6 5 3 1 1 2 2 3 4 5 6 7 8 9 10 11 11 11 11 11 12 12 8 5 5 5 4 3 3 3 2 3 3 5 6 6 7 7 8 8 9 8 7 8
11 11 10 8 8 6 7 6 10 15 12 12 12 13 13 13 13 13 12 11 11 11 11 11 10 9 9 9 10 10 10 10 9 9 9 8 9 9 9 8 8 7 4 2 1 1 2 3 3 4 5 6 8 8 9 9 10 9 9 10 11 11 11 8 6 5 5 4 4 3 2 2 3 4 5 5 6 6 7 8 8 7 6 6 8
11 11 10 9 7 7 6 6 9 8 8 12 14 14 13 13 13 12 11 11 11 12 11 11 10 10 10 10 10 10 10 10 10 10 10 9 8 7 8 7 7 4 3 2 0 1 2 3 4 4 6 8 8 8 8 8 8 8 8 9 10 11 11 9 6 4 4 5 3 2 3 4 4 4 4 5 5 6 7 7 7 6 7 8 9
10 9 9 9 8 7 6 6 6 6 6 6 6 11 16 14 13 13 12 11 10 11 12 11 11 11 11 10 10 11 10 10 10 10 10 10 9 8 7 6 6 4 3 2 2 3 3 4 4 5 7 8 8 8 8 8 7 7 7 7 9 10 10 6 5 4 4 4 4 3 2 3 4 5 5 5 5 5 6 7 7 8 8 8 9
8 9 8 7 8 7 6 6 6 7 6 5 6 7 13 16 15 14 13 13 13 12 12 11 11 11 11 11 11 8 9 7 11 8 11 11 9 4 6 5 5 6 4 3 3 3 4 4 5 6 7 7 9 9 8 8 7 7 5 5 6 8 4 5 5 5 5 5 5 3 4 5 5 7 7 7 6 7 7 7 9 10 12 13 14
6 7 7 7 7 8 9 7 8 8 7 6 6 7 10 15 12 14 14 13 12 12 12 12 11 10 9 9 9 4 4 4 5 4 9 5 8 8 8 7 6 6 5 4 4 3 4 4 5 5 6 7 7 9 9 8 7 6 4 2 4 5 4 5 5 5 5 4 4 4 6 6 7 8 8 8 8 8 9 11 12 14 15 16 17
8 7 6 7 7 7 10 9 7 9 7 6 5 5 6 9 6 6 6 8 9 10 7 5 7 4 9 6 4 3 3 3 3 6 2 4 6 9 8 8 7 6 5 5 4 4 3 4 4 5 6 5 8 5 4 6 7 6 4 2 4 5 4 5 5 5 5 4 5 7 10 10 11 11 12 12 12 12 13 15 16 17 18 18 18
8 7 7 8 7 7 7 8 9 8 8 7 5 5 5 5 6 5 5 6 6 6 4 5 4 4 3 3 4 3 4 3 4 4 3 6 4 8 8 8 7 7 6 5 4 4 4 4 5 5 5 6 4 3 4 4 3 5 2 4 5 5 5 5 5 5 5 5 4 11 12 13 14 14 13 13 13 14 15 16 16 17 17 17 17
10 9 9 8 8 8 8 8 10 9 8 6 6 5 5 5 5 5 5 5 4 5 4 4 4 4 4 4 4 4 4 4 7 11 9 4 4 7 7 8 7 7 6 4 4 4 5 5 6 6 5 4 3 3 2 3 2 2 1 5 6 5 5 5 5 4 4 5 6 14 13 13 15 14 14 14 14 15 15 15 16 16 16 16 16
10 9 7 9 10 9 8 8 8 8 8 7 8 6 5 5 5 5 5 5 4 5 5 3 4 4 4 4 4 3 4 4 4 3 5 4 3 3 3 3 1 1 3 1 2 2 2 3 3 3 3 3 3 2 2 3 2 1 4 5 6 6 5 5 5 4 4 5 7 14 14 14 15 15 16 16 14 14 14 14 15 15 15 15 16
8 8 10 9 10 10 10 8 9 9 8 7 7 7 8 6 6 5 5 5 5 5 5 4 4 4 4 4 4 4 4 5 4 3 4 4 4 4 4 3 3 3 1 3 3 2 2 3 2 2 2 1 2 2 1 0 4 5 4 5 6 6 5 5 4 4 4 5 7 13 13 13 13 14 14 14 14 14 14 15 15 14 14 15 16
9 9 10 9 10 10 10 9 9 9 9 7 7 6 7 6 6 6 6 6 5 5 6 5 5 5 5 5 5 4 4 5 4 5 5 4 4 4 4 4 4 3 2 2 3 3 2 2 2 1 1 0 0 2 1 1 3 4 3 4 5 6 5 5 4 4 5 5 7 14 13 12 11 11 11 11 12 12 13 13 14 15 15 16 17
9 9 9 9 10 11 11 10 10 10 8 8 8 7 6 7 7 6 7 7 6 6 6 6 5 5 5 5 5 5 6 5 5 5 4 4 4 4 4 4 3 2 2 1 1 1 1 0 1 0 1 0 0 2 1 0 1 5 4 3 5 5 5 5 5 5 4 5 5 11 13 12 13 12 12 12 12 12 12 13 13 14 16 17 16
11 10 10 10 10 10 11 11 10 11 9 9 9 7 7 7 6 6 7 7 6 6 6 5 5 5 4 6 6 6 5 6 6 5 5 4 3 3 4 3 2 2 2 2 2 1 1 2 2 1 2 1 1 4 2 1 1 4 5 4 5 6 6 5 5 5 4 5 5 8 13 14 13 13 13 14 14 13 13 13 14 15 16 16 15
13 12 10 9 9 11 13 13 11 11 9 9 8 8 8 8 7 7 7 7 7 7 5 5 5 5 5 6 6 6 6 6 5 5 5 5 4 4 4 3 3 2 3 3 2 2 1 2 3 2 2 0 1 2 1 2 2 1 5 5 6 6 6 5 5 5 4 5 5 6 13 13 13 12 13 13 14 14 13 13 14 15 15 14 14
12 12 11 9 9 12 12 13 12 11 9 9 8 8 8 8 8 7 6 7 7 6 5 5 5 6 6 6 5 5 6 5 5 5 4 4 4 4 4 4 3 2 1 2 1 2 2 2 1 1 1 2 3 3 1 0 1 2 5 6 7 7 6 5 5 5 5 4 5 4 7 13 12 12 12 13 13 13 13 13 14 14 15 14 14
13 12 11 9 11 13 13 12 12 11 10 10 9 9 8 8 7 6 7 8 6 6 6 5 6 6 6 6 6 5 5 5 5 4 4 4 4 4 4 4 3 1 2 2 2 4 3 2 1 1 2 2 1 0 0 4 6 5 6 7 7 7 6 6 6 5 5 4 4 4 4 6 12 13 13 13 13 14 13 13 13 13 13 13 13
10 13 12 11 13 13 13 13 12 11 11 10 9 9 8 7 7 7 7 7 6 6 6 7 6 6 6 6 6 5 5 6 5 5 5 4 4 4 3 2 3 2 3 3 3 4 3 2 2 2 2 3 3 5 5 5 6 6 7 6 7 7 6 6 5 5 5 4 4 4 4 4 4 10 13 13 13 13 14 14 14 13 13 13 13
11 9 11 13 11 9 10 10 11 12 12 10 8 8 8 7 7 7 6 7 6 6 7 6 6 6 6 6 6 5 5 4 5 4 4 4 4 4 2 2 1 2 2 2 4 4 3 2 2 2 3 4 3 5 6 7 6 7 7 7 7 6 6 6 5 5 5 4 4 4 5 4 4 4 4 11 12 12 14 13 13 13 12 12 12
11 11 13 14 13 12 10 9 11 12 12 10 9 8 8 7 7 6 6 7 7 7 6 6 6 6 6 5 5 5 5 5 4 5 4 4 4 4 3 3 3 3 3 2 3 3 3 4 3 3 1 4 5 4 5 7 7 8 7 7 7 6 5 5 5 4 4 3 3 3 4 3 4 4 4 3 8 11 12 12 12 13 12 12 11
16 14 12 12 13 13 12 12 12 13 12 11 9 8 8 7 7 6 6 5 7 6 6 6 6 6 6 6 5 5 5 5 5 5 5 4 4 4 4 3 3 2 2 2 2 4 3 4 2 3 5 5 6 4 5 7 7 8 6 7 6 6 6 5 4 4 3 4 4 3 3 4 4 3 3 3 3 5 10 10 10 11 11 11 11
15 15 14 13 12 13 14 14 14 14 12 12 10 8 8 7 6 6 6 5 7 6 6 6 6 6 6 6 5 5 5 5 5 4 4 4 4 4 4 4 3 2 2 1 1 2 3 4 2 1 6 5 6 6 5 6 7 7 6 7 5 6 5 6 5 5 4 5 5 4 4 3 2 5 3 3 4 3 6 8 8 8 9 10 9
14 15 15 16 14 13 13 13 12 12 11 11 10 9 8 7 6 6 5 6 5 5 6 7 6 6 5 6 5 5 5 5 5 4 5 4 3 4 3 3 3 2 2 2 2 1 1 5 4 1 6 7 6 7 6 5 6 6 6 6 5 5 4 4 3 3 5 5 5 5 4 4 4 3 3 3 3 3 3 5 6 6 7 9 9
12 15 14 12 11 10 11 12 12 11 11 10 10 9 7 6 6 6 6 6 5 4 7 6 6 6 6 6 5 5 5 5 5 5 6 4 4 3 4 3 2 2 2 3 4 3 3 3 5 5 5 6 7 6 7 6 6 6 6 5 5 4 4 4 4 5 4 4 4 4 4 5 4 3 3 3 3 4 4 3 3 3 3 6 6
11 13 14 12 11 10 10 11 11 11 9 9 9 8 7 7 7 5 5 5 5 5 6 7 6 6 6 6 5 5 5 5 5 5 5 5 5 4 3 2 3 4 4 5 4 4 4 5 4 6 8 6 5 6 6 8 7 7 5 6 5 5 5 4 4 4 3 4 4 4 5 2 3 3 4 4 5 4 4 3 3 3 2 4 5
11 13 13 12 13 13 12 13 11 11 10 10 9 9 8 7 6 8 7 6 6 6 6 6 6 6 6 6 6 5 5 5 4 5 5 5 4 3 2 3 3 3 4 3 4 4 3 4 3 4 7 7 3 3 3 7 8 5 5 5 5 4 4 4 4 3 3 3 2 3 2 3 2 3 4 4 4 4 4 4 3 3 3 2 4
12 14 16 14 12 12 14 13 11 11 11 11 9 9 7 7 7 8 4 5 6 7 6 6 6 6 6 6 5 5 6 5 4 4 5 5 4 3 3 4 3 3 3 2 3 3 3 3 3 4 2 7 4 4 6 5 3 4 5 2 4 4 3 4 4 3 3 3 3 3 2 3 2 3 3 3 2 1 1 3 3 2 2 3 2
16 17 15 13 12 12 12 13 12 11 10 11 10 9 5 6 7 5 6 3 2 4 6 5 6 7 6 6 6 6 6 5 4 4 5 4 4 4 4 4 4 4 4 2 2 3 3 3 4 6 5 2 3 3 4 1 5 3 3 6 0 1 2 2 2 2 2 2 2 3 2 2 1 1 3 3 2 1 1 1 2 1 1 1 2
13 12 13 15 12 12 12 13 13 12 11 10 10 9 8 6 5 6 4 4 5 5 5 5 5 5 6 5 5 6 6 6 5 4 3 4 4 4 4 3 3 3 4 3 3 2 2 2 3 4 7 6 3 3 2 1 5 8 2 1 3 4 0 4 2 1 1 0 2 2 1 1 0 2 3 4 3 3 2 1 1 0 1 1 2
15 16 15 15 12 15 14 14 13 12 11 11 11 9 8 7 5 4 4 6 5 5 6 5 6 6 6 5 6 5 6 6 5 4 4 5 4 4 4 4 4 3 3 4 4 4 3 3 4 4 5 7 5 2 0 2 7 3 8 5 3 0 4 3 3 2 0 0 0 0 0 0 0 1 3 3 1 2 3 2 1 1 2 3 4
16 16 16 16 14 13 14 13 11 11 11 12 12 11 10 10 9 9 9 7 8 9 10 10 7 7 7 4 5 6 6 5 5 5 5 5 4 4 4 4 4 4 5 4 4 3 3 3 3 6 5 4 7 4 2 0 5 3 3 5 7 5 5 2 4 3 0 1 2 1 1 1 0 0 0 1 2 2 1 2 1 1 1 3 4
16 14 12 13 13 13 14 14 12 11 11 12 12 11 10 10 11 11 9 9 9 5 5 6 7 5 5 6 6 5 6 7 5 5 4 4 4 3 3 3 3 3 3 5 4 4 3 3 3 4 5 5 5 5 6 4 2 1 0 1 1 1 7 7 5 3 1 2 1 2 3 2 1 1 1 2 3 2 2 1 0 1 2 2 3
17 14 13 12 15 15 15 14 12 12 11 12 13 12 11 10 10 10 8 9 9 8 7 6 5 6 6 6 6 5 6 6 7 5 5 5 4 4 4 3 4 3 3 5 5 3 5 3 3 4 4 5 7 7 5 5 7 3 0 1 2 4 3 2 5 7 5 4 3 1 2 3 3 3 1 1 3 4 3 2 2 2 3 3 2
13 15 15 15 14 13 14 13 13 12 12 14 12 11 11 10 10 9 8 6 8 7 6 6 6 6 6 5 5 5 5 5 6 6 5 5 4 5 4 4 5 3 4 5 3 4 5 5 4 4 5 3 3 4 6 6 4 6 3 2 4 3 3 2 3 3 3 3 1 3 3 1 1 4 4 2 3 3 2 2 1 1 2 4 4
15 13 12 11 12 12 14 15 14 12 12 14 13 12 11 11 10 10 11 9 7 7 7 8 7 6 7 5 5 5 6 5 4 5 5 4 5 4 5 6 6 5 4 5 4 4 4 4 4 5 4 5 3 4 5 4 3 2 2 6 4 2 2 2 2 3 3 2 5 5 4 5 4 5 2 3 4 4 3 2 2 3 4 4 4
11 13 13 13 13 13 14 15 14 12 13 14 14 14 11 11 11 12 12 12 11 11 9 8 7 6 7 6 6 5 5 5 5 3 4 4 5 5 6 5 5 5 5 5 4 5 4 5 4 5 5 6 6 6 5 3 4 4 3 4 6 7 6 4 4 2 3 2 3 1 1 4 6 2 1 3 3 3 2 1 2 3 4 5 4
Wind_Direction
161 151 151 153 145 140 139 137 134 130 128 126 125 124 122 120 118 116 115 115 114 111 109 107 105 103 102 100 97 97 98 99 100 102 109 120 123 112 112 115 113 103 99 101 95 93 91 87 82 76 72 67 62 57 52 50 50 50 51 53 53 56 62 65 69 71 78 80 80 82 83 84 86 89 89 91 90 87 82 77 73 68 61 71 67
155 152 150 149 145 142 141 138 135 133 130 128 127 126 124 122 120 119 117 117 116 111 110 107 107 106 105 102 101 100 99 100 103 106 112 118 118 118 119 119 115 115 111 104 99 96 91 87 83 78 73 68 63 56 48 44 40 44 47 46 47 46 45 48 55 65 76 77 78 79 82 83 86 88 90 89 81 81 88 88 80 68 64 72 67
138 142 149 148 145 143 142 138 137 135 132 130 129 126 125 123 122 121 121 119 116 112 110 109 108 107 104 102 101 101 100 98 99 104 111 116 118 121 126 121 114 114 114 104 98 94 91 89 84 78 72 66 62 56 49 45 46 38 41 44 41 40 37 35 38 60 73 74 70 75 80 85 86 88 88 87 81 79 86 87 82 79 78 75 69
138 144 146 147 145 143 141 140 139 136 133 131 129 127 125 124 124 123 122 118 116 114 112 111 111 109 106 105 105 104 104 104 104 104 106 115 123 130 133 122 119 112 101 100 100 99 94 89 85 79 71 60 53 47 46 45 48 47 40 43 42 40 39 36 28 31 47 60 65 67 52 35 79 91 91 88 86 80 78 81 82 81 79 74 74
139 143 145 145 144 142 141 141 140 136 133 131 129 128 126 125 124 123 121 119 118 118 116 115 113 112 109 107 106 106 106 106 106 108 110 107 117 128 143 144 127 110 108 105 102 98 94 88 83 74 66 57 45 38 34 36 43 46 44 43 45 48 46 42 37 22 352 11 90 81 71 54 61 93 96 90 86 83 82 82 81 76 75 74 73
144 143 144 143 144 144 142 143 140 137 134 132 130 129 128 127 126 125 122 121 121 119 119 117 116 116 110 109 108 107 107 108 109 105 106 117 115 124 124 118 116 106 107 108 104 99 94 86 77 68 59 51 43 35 26 23 27 30 32 34 37 42 44 40 48 298 240 222 183 140 247 65 57 94 97 90 86 84 84 83 84 82 74 71 68
141 142 141 144 143 145 143 142 140 138 135 132 130 129 130 129 128 127 125 125 123 122 123 121 119 117 115 114 113 108 107 110 111 105 98 116 126 110 118 120 117 110 112 109 106 103 95 86 76 64 54 45 37 29 22 18 20 22 21 23 21 23 21 11 323 346 321 187 127 130 141 123 92 97 97 91 89 86 83 81 80 81 78 72 72
130 136 139 142 145 147 143 141 140 137 135 132 131 132 132 131 130 130 128 126 125 125 124 123 124 124 121 114 112 111 109 110 109 105 90 60 119 139 129 125 118 113 112 111 108 101 93 82 73 63 53 44 32 24 17 14 15 16 15 14 11 7 1 5 4 20 67 98 108 121 127 157 153 101 96 94 90 85 82 80 79 80 78 76 72
135 137 139 140 146 145 141 139 139 138 135 134 133 134 133 133 132 132 131 129 128 127 125 125 126 127 126 115 114 114 114 111 110 108 92 74 73 134 123 101 99 101 101 101 97 87 80 74 68 61 52 41 31 19 14 12 11 11 12 10 6 3 358 358 2 27 53 97 116 124 133 177 121 95 101 101 97 92 87 81 76 77 77 75 73
134 135 136 141 145 145 141 140 138 137 137 135 134 134 134 134 136 136 133 132 132 130 130 128 130 132 129 120 118 116 114 111 106 106 105 94 77 88 93 102 105 103 103 101 95 88 81 72 63 55 46 37 25 14 10 8 7 7 9 9 7 1 355 349 0 35 78 108 109 115 182 155 106 107 110 102 96 90 86 87 85 80 76 71 70
137 137 139 140 146 142 142 139 138 139 138 138 136 135 136 136 137 137 137 136 136 135 131 133 134 134 126 122 119 117 115 115 117 112 111 108 99 94 97 97 99 107 111 105 96 88 80 65 54 46 37 26 17 11 5 2 1 2 3 10 10 4 356 355 353 37 119 120 118 151 159 130 113 123 113 105 98 93 89 85 81 77 74 73 73
137 138 139 142 146 140 142 140 139 138 140 139 137 137 136 137 138 141 139 140 139 137 138 137 137 135 129 127 123 116 114 118 120 123 120 114 113 115 114 111 107 108 107 103 93 84 70 54 40 33 26 14 10 4 358 355 355 358 5 16 12 3 356 1 0 28 113 112 109 109 129 138 130 123 113 105 96 91 86 83 78 72 69 71 76
137 136 139 146 140 143 142 142 139 140 141 141 140 140 138 140 141 142 142 140 141 140 139 140 141 137 135 133 128 123 120 119 123 129 132 127 122 121 121 118 114 113 109 102 91 80 67 52 33 23 13 6 356 352 349 347 352 360 12 17 8 1 1 12 17 43 74 87 102 108 126 119 116 118 110 105 98 89 82 74 70 63 55 46 45
139 137 140 138 142 145 144 142 141 143 144 143 143 142 141 140 142 142 140 142 143 143 142 142 143 144 140 137 136 130 128 125 126 130 136 138 137 133 133 133 128 119 114 107 96 77 61 40 26 16 2 350 346 339 341 346 352 6 17 14 3 3 6 13 17 46 87 81 79 82 71 75 97 111 107 103 96 85 73 66 60 59 52 46 42
139 139 135 138 146 144 146 142 142 142 144 143 143 142 140 140 138 138 139 140 144 145 146 147 149 150 150 150 144 141 137 134 134 134 139 142 139 141 143 140 135 125 126 107 86 67 37 30 15 1 342 335 329 336 343 349 358 10 13 8 2 4 6 14 16 46 76 73 62 76 57 63 112 113 106 99 89 79 70 64 59 56 50 46 47
139 137 135 141 140 149 146 150 145 143 143 144 141 141 139 138 137 140 141 144 148 150 152 151 149 150 154 153 150 146 144 142 141 142 146 147 146 146 148 145 143 148 126 101 75 55 6 5 349 333 324 319 325 341 348 351 360 12 13 5 359 2 0 20 31 61 69 73 67 43 20 28 53 80 88 87 82 75 66 59 56 55 53 49 44
134 133 136 138 146 143 149 148 147 146 145 143 141 139 138 139 140 142 145 146 147 150 150 154 152 150 152 155 153 152 150 149 146 147 151 157 151 151 153 155 158 146 134 144 113 21 319 314 312 309 307 319 338 341 347 348 355 11 16 6 357 357 360 38 56 59 62 60 60 34 8 20 34 79 81 78 73 66 61 50 48 52 51 45 41
135 137 137 141 143 146 145 144 148 144 150 147 145 142 143 142 141 142 144 146 150 157 156 163 165 165 165 159 158 156 155 154 153 151 153 157 162 159 163 160 158 154 159 166 235 276 287 286 295 307 322 332 335 339 342 342 349 10 18 7 357 358 18 73 73 59 63 66 50 44 19 37 45 73 75 71 64 62 57 41 38 34 36 37 41
134 134 135 142 144 146 142 142 137 146 149 144 148 151 149 147 144 146 148 152 155 162 166 169 171 174 171 167 164 160 160 159 161 157 155 161 163 173 172 171 168 171 173 203 228 271 277 295 314 328 331 332 329 330 337 340 342 356 12 7 353 15 35 62 76 76 75 72 49 40 25 33 78 77 71 69 61 58 53 42 31 29 35 42 49
134 134 137 140 143 146 146 143 148 150 145 148 150 153 155 153 152 153 158 164 167 167 170 171 174 176 173 172 169 166 164 163 165 165 162 165 167 165 172 174 174 181 188 218 235 260 285 307 324 329 326 326 327 328 329 331 338 338 349 3 348 40 36 53 69 64 51 55 57 31 55 66 75 74 71 70 68 63 57 42 38 45 54 56 55
132 141 141 146 151 150 153 153 155 153 150 148 152 156 161 158 157 162 167 168 169 168 166 169 173 176 174 174 171 160 156 164 167 171 172 161 169 175 182 186 189 192 206 218 239 260 290 312 319 325 325 323 320 319 320 320 323 323 317 21 17 63 53 69 68 63 55 46 38 52 56 57 60 63 66 75 76 65 58 59 60 66 67 67 64
147 148 152 154 153 157 161 157 159 159 153 153 154 160 165 159 151 162 166 169 169 166 164 166 169 167 172 173 156 159 155 152 163 178 162 165 176 184 190 195 199 209 217 228 239 258 279 298 308 309 308 312 308 319 316 317 321 320 311 153 62 82 74 74 74 70 63 47 53 58 56 58 63 63 65 63 66 66 74 75 71 70 70 68 67
149 155 160 162 164 159 163 165 162 158 157 153 155 166 157 142 153 161 168 167 171 163 163 172 157 172 167 163 169 164 160 172 177 183 166 175 183 191 200 202 207 213 221 232 246 263 273 281 282 282 283 287 297 296 307 309 315 312 342 99 88 92 88 80 76 70 65 63 57 65 64 66 69 71 76 79 79 79 76 76 75 72 70 69 67
161 166 162 166 164 167 173 168 164 161 158 157 158 163 152 150 163 169 169 168 169 159 178 177 175 178 171 172 179 172 168 176 195 186 183 180 199 203 207 213 215 218 221 233 255 267 270 278 272 269 273 278 276 286 295 281 291 283 95 105 102 100 90 85 82 72 63 68 68 74 69 69 69 70 73 77 77 75 76 78 76 72 70 68 68
165 159 160 168 171 172 171 170 164 163 161 161 164 165 156 159 175 177 171 171 170 171 186 192 187 188 176 184 189 178 167 179 222 201 166 175 196 215 224 224 252 259 249 242 245 254 287 284 282 278 261 260 276 273 276 308 311 175 111 113 106 101 95 93 93 82 70 66 72 73 73 72 74 73 72 72 73 75 74 76 72 70 71 68 65
157 159 171 171 173 172 174 171 165 167 167 165 167 168 164 172 181 183 176 180 171 184 189 201 198 194 186 193 198 189 164 184 209 181 175 177 185 199 209 216 216 228 224 228 238 240 246 247 241 232 247 230 238 283 356 333 59 70 97 115 117 105 103 96 85 83 67 65 71 70 72 75 75 73 71 72 71 71 68 68 73 71 69 69 66
167 172 170 174 171 173 175 169 169 169 169 166 162 171 178 183 182 182 175 188 182 185 199 204 204 192 193 193 194 197 173 178 187 172 180 174 182 192 207 211 212 217 228 193 210 211 229 192 183 208 207 307 234 80 60 73 86 92 102 123 115 116 107 96 90 77 65 65 74 74 70 67 64 66 66 67 68 68 69 66 68 73 70 68 65
167 169 172 173 172 175 173 169 171 171 170 165 168 180 183 185 190 186 186 189 181 195 197 202 203 199 193 195 191 176 161 162 169 162 171 167 179 187 195 198 177 156 174 146 151 95 100 176 255 317 67 308 249 62 346 262 154 117 124 121 115 108 102 96 84 72 68 68 72 79 77 74 72 68 65 62 58 57 62 69 70 71 69 65 58
171 171 173 170 174 173 171 173 173 174 169 166 175 183 184 189 188 188 189 190 190 200 194 190 199 209 188 173 161 160 153 155 160 164 154 166 172 177 168 183 168 167 142 100 120 134 23 3 352 58 102 249 330 59 325 4 352 111 130 133 115 109 104 93 88 82 68 64 69 81 81 76 72 71 71 68 65 65 63 62 64 64 61 60 59
176 172 169 170 171 172 173 175 175 175 170 168 179 183 189 190 189 194 191 188 199 201 184 185 193 175 174 167 166 157 161 163 166 171 159 168 170 178 165 180 178 168 143 147 172 115 61 25 26 57 75 281 347 87 49 47 325 85 129 137 121 116 108 107 98 91 79 67 66 75 80 77 74 70 71 72 71 68 66 66 65 69 66 62 62
172 172 172 168 168 168 176 176 176 175 169 173 179 188 190 193 191 192 186 195 199 190 188 189 176 176 164 162 160 158 156 162 167 167 169 163 164 176 185 180 170 183 150 146 144 104 71 58 39 52 82 61 21 21 359 338 291 135 127 142 124 115 113 109 105 97 92 79 71 71 80 82 79 77 74 74 74 72 70 68 66 64 66 68 65
176 175 174 167 163 171 174 176 175 174 171 175 181 186 194 196 191 184 192 202 189 182 186 184 174 172 154 162 164 161 160 168 164 164 169 163 164 180 183 180 171 146 117 153 117 86 87 71 54 55 32 91 74 339 357 50 76 84 99 121 123 119 115 111 106 103 98 91 83 75 73 81 86 83 81 78 76 76 73 72 71 70 70 69 68
181 174 170 166 169 171 172 176 173 174 175 176 181 188 195 196 190 189 195 197 189 178 178 182 166 158 159 163 166 162 167 165 169 164 163 166 161 164 181 193 151 133 130 140 115 91 81 85 71 91 83 46 53 50 55 52 73 70 80 88 105 107 108 108 112 115 111 108 99 86 73 70 73 85 87 83 81 76 72 70 69 70 70 69 69
174 176 165 170 170 169 171 170 173 174 178 177 178 184 193 195 192 186 186 185 184 176 179 165 155 157 159 170 162 162 166 169 160 161 155 159 155 166 171 183 150 153 144 133 110 112 124 115 98 90 95 98 98 98 93 78 66 70 72 82 85 95 105 110 124 124 121 117 110 94 86 76 69 63 70 86 85 81 77 74 73 72 72 72 70
171 176 174 172 165 168 168 169 172 176 176 179 177 183 187 185 186 176 177 175 174 177 159 149 154 157 158 171 165 164 164 162 162 159 169 158 153 159 164 178 173 164 143 160 137 123 135 122 115 92 97 112 100 91 92 87 86 75 73 80 89 97 99 113 119 121 124 124 109 103 92 88 73 66 61 45 79 84 82 79 77 75 74 73 68
176 178 174 168 166 167 168 167 172 175 178 176 177 179 181 177 180 173 171 178 172 165 148 154 159 157 163 167 170 162 161 167 160 157 161 164 158 163 170 167 174 152 157 158 133 153 148 122 140 149 105 105 106 79 69 93 87 85 78 82 90 97 105 109 113 112 114 111 113 115 112 99 101 110 102 85 78 86 86 86 83 78 74 69 66
174 174 175 170 165 168 169 168 172 175 174 175 173 176 173 169 173 169 174 186 168 160 146 151 158 160 163 167 164 162 158 160 156 157 157 162 164 166 171 165 164 165 166 161 192 209 155 125 135 163 115 115 103 102 75 88 92 89 87 86 85 95 100 116 119 123 114 108 111 114 115 133 143 103 96 86 69 58 84 87 81 74 63 62 60
175 175 177 174 168 167 169 168 170 170 170 171 172 173 169 163 166 171 175 180 179 154 146 154 161 160 162 165 161 154 154 150 148 151 154 164 167 170 164 158 158 133 166 187 208 144 200 128 119 45 111 116 115 113 108 96 93 92 84 85 84 86 96 96 99 93 101 104 105 114 126 127 115 132 111 98 85 62 43 52 60 47 55 54 45
174 175 175 173 163 164 163 165 165 166 166 164 165 167 157 157 161 166 178 180 177 139 151 157 157 156 166 162 151 150 148 145 149 151 151 157 158 165 168 162 147 155 115 119 116 128 130 97 118 89 73 115 128 124 122 111 90 84 81 71 73 70 72 79 88 94 95 112 114 115 116 128 129 125 114 111 117 96 84 66 66 50 8 58 46
168 171 172 167 164 165 161 160 165 163 158 158 160 162 149 158 162 168 179 184 162 143 159 158 151 157 164 155 150 150 150 152 154 150 147 157 158 162 179 162 155 141 133 110 115 128 125 105 101 101 95 89 89 120 122 106 84 73 73 60 56 55 55 71 76 91 104 104 112 118 127 152 123 117 119 129 125 128 130 135 97 84 56 36 36
166 170 172 172 170 169 162 165 165 162 159 161 166 164 158 157 164 178 183 178 161 157 156 154 155 160 158 155 152 150 149 153 155 148 156 160 156 151 142 160 160 141 123 144 138 123 124 124 105 95 116 116 101 123 125 115 111 68 45 48 39 34 51 58 64 63 68 60 69 102 118 103 85 123 149 137 137 147 146 129 128 109 81 44 13
178 174 178 176 171 167 166 163 161 166 166 165 165 167 166 168 167 180 169 158 156 155 155 162 158 158 158 157 152 149 154 157 155 153 156 151 146 138 143 151 145 124 128 156 138 106 92 90 110 71 75 137 139 169 176 116 42 140 128 67 11 359 25 45 51 26 42 51 85 95 82 112 115 132 149 132 112 99 136 125 102 91 92 45 353
175 180 177 166 169 168 167 164 167 167 168 165 164 167 155 157 160 174 165 141 127 148 152 156 150 155 162 157 153 153 151 157 156 154 148 153 152 141 154 146 133 125 108 82 82 100 130 133 129 127 114 95 117 178 199 84 135 99 102 88 56 57 331 11 7 29 15 46 66 78 93 107 123 120 135 99 108 146 165 117 124 109 50 92 284
173 178 176 174 170 170 168 167 169 168 165 170 166 158 151 151 156 157 155 138 154 139 130 135 141 143 157 159 159 152 154 158 161 157 143 139 145 141 133 124 124 119 129 129 123 152 120 127 131 129 137 132 141 197 257 148 130 128 84 133 180 115 338 272 216 278 6 346 78 105 106 143 333 69 111 144 158 154 164 158 170 187 296 277 258
182 182 179 177 177 173 168 166 168 169 165 164 161 152 141 139 137 108 107 90 87 124 128 146 163 161 149 159 169 162 157 156 157 146 136 139 137 129 127 136 126 131 114 123 157 183 176 165 151 140 157 150 163 156 322 161 165 179 137 105 59 24 217 227 122 276 1 122 300 220 183 34 76 82 131 160 151 147 142 150 196 217 254 266 273
188 187 181 179 171 166 162 166 165 165 165 163 160 158 158 156 156 156 160 158 159 164 170 165 167 167 171 163 154 164 156 149 143 140 139 133 129 132 133 135 132 129 125 121 126 102 106 99 148 154 155 167 151 143 128 225 193 185 177 158 163 174 179 197 114 226 337 234 280 312 310 294 299 356 95 186 205 188 181 166 172 205 256 256 258
193 181 175 178 170 165 166 166 166 166 164 163 162 161 162 166 171 172 171 173 166 173 149 155 158 157 147 159 162 153 150 143 141 141 137 129 125 132 134 123 123 130 116 110 103 115 116 113 118 117 155 151 140 155 166 167 83 314 167 110 131 113 147 136 198 94 184 305 340 282 291 299 292 318 314 209 221 185 248 217 248 264 262 272 271
184 171 175 174 172 171 168 167 165 165 167 164 166 168 169 169 170 171 171 171 170 164 161 155 148 147 150 159 154 149 147 141 140 142 141 139 132 137 138 122 106 112 116 118 125 122 102 80 89 113 122 154 164 158 176 177 162 210 42 70 67 88 117 77 146 161 152 164 257 308 290 284 323 290 270 253 216 218 224 265 264 290 297 297 292
168 175 178 179 172 169 166 164 166 165 167 167 166 170 170 170 170 166 166 170 159 155 147 145 150 155 148 157 151 143 137 136 140 143 144 141 138 144 139 120 114 112 115 115 112 116 118 120 106 98 116 102 132 150 149 185 169 179 116 51 76 72 65 50 101 93 134 119 233 187 235 335 343 293 274 260 257 254 234 243 231 285 318 327 338
181 173 173 168 170 170 169 166 167 168 167 168 167 170 170 167 169 170 163 161 156 149 153 156 158 160 156 166 155 139 139 133 137 138 134 123 118 126 130 130 129 128 120 124 118 106 104 99 109 115 117 105 88 119 135 142 147 121 140 149 127 96 60 51 53 81 60 95 163 198 197 183 217 262 254 253 245 265 285 329 333 340 339 331 316
168 171 173 175 174 174 170 170 170 165 167 168 170 174 169 172 170 169 167 162 163 158 157 160 158 161 164 169 162 149 140 142 132 119 118 120 114 116 123 128 128 126 124 122 124 124 119 110 105 95 100 122 120 107 99 96 106 99 94 132 152 161 168 161 183 176 146 130 80 132 161 192 195 248 263 228 240 271 304 329 1 339 342 320 323